DW0707 Weather Reports


time (UTC)temp
F
wind
direction
speed
knots
gust
knots
rain 1hr
in
rain 24hr
in
rain mn
in
humidity
%
barometer
mb
20260504215001 60 286 2.6 7.8 0.00 0.00 0.00 78 1012.0
20260504214456 60 266 1.7 7.0 0.00 0.00 0.00 77 1011.9
20260504213950 60 245 1.7 5.2 0.00 0.00 0.00 77 1012.0
20260504213443 60 273 1.7 7.8 0.00 0.00 0.00 77 1011.9
20260504212938 60 333 1.7 7.8 0.00 0.00 0.00 78 1012.0
20260504212431 60 165 1.7 9.6 0.00 0.00 0.00 78 1012.1
20260504211420 60 182 2.6 12.2 0.00 0.00 0.00 77 1012.0
20260504210913 60 193 2.6 9.6 0.00 0.00 0.00 77 1012.0
20260504210407 60 130 2.6 9.6 0.00 0.00 0.00 77 1012.0
20260504205902 60 271 2.6 8.7 0.00 0.00 0.00 77 1012.0
20260504205356 60 213 1.7 6.1 0.00 0.00 0.00 78 1012.0
20260504204850 60 76 1.7 7.0 0.00 0.00 0.00 78 1012.0
20260504204344 60 35 1.7 7.0 0.00 0.00 0.00 78 1012.0
20260504203838 60 194 1.7 6.1 0.00 0.00 0.00 78 1012.0
20260504202319 60 314 1.7 7.0 0.00 0.00 0.00 78 1012.1
20260504201813 60 264 1.7 7.0 0.00 0.00 0.00 78 1012.1
20260504201307 60 215 1.7 12.2 0.00 0.00 0.00 78 1012.0
20260504200801 60 178 1.7 12.2 0.00 0.00 0.00 78 1012.2
20260504200256 60 35 2.6 12.2 0.00 0.00 0.00 78 1012.2
20260504195750 60 229 2.6 12.2 0.00 0.00 0.00 78 1012.1
20260504195243 60 244 1.7 4.3 0.00 0.00 0.00 78 1012.1
20260504194737 60 248 1.7 9.6 0.00 0.00 0.00 78 1012.1
20260504194232 60 336 1.7 9.6 0.00 0.00 0.00 79 1012.0
20260504193726 59 19 1.7 9.6 0.00 0.00 0.00 78 1012.0
20260504193220 59 190 2.6 9.6 0.00 0.00 0.00 79 1012.0
20260504192714 59 200 1.7 6.1 0.00 0.00 0.00 79 1012.0
20260504192208 59 190 1.7 6.1 0.00 0.00 0.00 78 1012.0
20260504191702 59 200 1.7 5.2 0.00 0.00 0.00 78 1012.1
20260504191156 59 281 1.7 6.1 0.00 0.00 0.00 78 1012.1
20260504190649 59 191 1.7 5.2 0.00 0.00 0.00 79 1012.0
20260504190143 59 195 1.7 5.2 0.00 0.00 0.00 79 1012.0
20260504185142 59 267 1.7 9.6 0.00 0.00 0.00 79 1012.0
20260504184639 59 169 1.7 9.6 0.00 0.00 0.00 80 1012.0
20260504184143 59 153 1.7 3.5 0.00 0.00 0.00 80 1012.0
20260504183138 59 287 1.7 7.0 0.00 0.00 0.00 80 1012.0
20260504182638 58 206 1.7 8.7 0.00 0.00 0.00 80 1012.0
20260504182138 59 271 1.7 8.7 0.00 0.00 0.00 80 1012.0
20260504181638 59 347 1.7 3.5 0.00 0.00 0.00 81 1012.0
20260504181137 59 347 1.7 3.5 0.00 0.00 0.00 81 1011.9
20260504180638 59 169 0.9 3.5 0.00 0.00 0.00 81 1011.9
20260504175634 58 182 1.7 5.2 0.00 0.00 0.00 82 1011.8
20260504175133 58 182 1.7 4.3 0.00 0.00 0.00 82 1011.7
20260504174634 58 217 1.7 5.2 0.00 0.00 0.00 83 1011.7
20260504174133 58 166 0.9 5.2 0.00 0.00 0.00 83 1011.7
20260504173631 58 204 1.7 3.5 0.00 0.00 0.00 83 1011.7
20260504173131 58 156 1.7 3.5 0.00 0.00 0.00 83 1011.7
20260504172632 58 188 1.7 4.3 0.00 0.00 0.00 84 1011.6
20260504172131 58 161 1.7 5.2 0.00 0.00 0.00 84 1011.7
20260504171632 58 163 1.7 5.2 0.00 0.00 0.00 84 1011.6
20260504171132 57 191 1.7 7.0 0.00 0.00 0.00 85 1011.6
20260504170632 57 204 1.7 7.0 0.00 0.00 0.00 85 1011.6
20260504170131 57 205 0.9 3.5 0.00 0.00 0.00 85 1011.6
20260504160124 56 213 0.9 3.5 0.00 0.00 0.00 88 1011.1
20260504151115 55 205 1.7 8.7 0.00 0.00 0.00 89 1010.8
20260504150115 55 183 1.7 4.3 0.00 0.00 0.00 89 1010.6
20260504140540 54 173 0.9 4.3 0.00 0.00 0.00 90 1010.2
20260504130428 54 109 0.9 7.0 0.00 0.00 0.00 90 1009.7
20260504120316 54 207 1.7 4.3 0.00 0.00 0.00 90 1009.4
20260504110710 54 201 1.7 3.5 0.00 0.00 0.00 89 1009.0
20260504110204 54 200 1.7 7.0 0.00 0.00 0.00 89 1008.9
20260504100606 53 165 1.7 4.3 0.00 0.00 0.00 88 1008.6
20260504100110 53 110 1.7 5.2 0.00 0.00 0.00 88 1008.6
20260504081557 53 270 0.0 0.0 0.00 0.00 0.00 83 1007.4
20260504081057 53 270 0.0 0.0 0.00 0.00 0.00 84 1007.5
20260504080556 53 270 0.0 0.0 0.00 0.00 0.00 83 1007.4
20260504045524 58 262 3.5 6.1 0.00 0.00 0.00 81 1007.4
20260504045024 58 297 4.3 7.8 0.00 0.00 0.00 81 1007.3
20260504044521 58 209 4.3 8.7 0.00 0.00 0.00 81 1007.4
20260504043521 58 248 4.3 8.7 0.00 0.00 0.00 81 1007.3
20260504042522 58 260 4.3 7.8 0.00 0.00 0.00 81 1007.3
20260504042021 58 261 4.3 7.8 0.00 0.00 0.00 81 1007.2
20260504041522 58 263 4.3 7.0 0.00 0.00 0.00 81 1007.3
20260504040520 58 266 4.3 7.0 0.00 0.00 0.00 80 1007.3
20260504040015 58 286 5.2 7.8 0.00 0.00 0.00 79 1007.3
20260504034456 59 283 5.2 8.7 0.00 0.00 0.00 77 1007.1
20260504033950 59 267 4.3 7.8 0.00 0.00 0.00 77 1007.2
20260504033444 59 239 4.3 9.6 0.00 0.00 0.00 76 1007.2
20260504032938 60 274 4.3 9.6 0.00 0.00 0.00 75 1007.1
20260504032432 60 275 4.3 8.7 0.00 0.00 0.00 75 1007.1
20260504031926 60 262 4.3 8.7 0.00 0.00 0.00 75 1007.0
20260504031420 60 264 4.3 8.7 0.00 0.00 0.00 75 1007.1
20260504030914 61 262 4.3 8.7 0.00 0.00 0.00 75 1007.0
20260504030409 61 281 4.3 8.7 0.00 0.00 0.00 75 1007.0
20260504025902 61 269 4.3 8.7 0.00 0.00 0.00 74 1007.1
20260504025357 62 254 4.3 8.7 0.00 0.00 0.00 75 1007.1
20260504024850 62 244 4.3 8.7 0.00 0.00 0.00 75 1007.1
20260504024344 62 248 4.3 10.4 0.00 0.00 0.00 75 1007.0
20260504023332 63 244 4.3 8.7 0.00 0.00 0.00 74 1007.1
20260504022826 63 271 4.3 7.8 0.00 0.00 0.00 73 1007.1
20260504021814 64 292 4.3 9.6 0.00 0.00 0.00 72 1007.2
20260504020256 65 242 4.3 9.6 0.00 0.00 0.00 69 1007.3
20260504015249 66 275 4.3 7.8 0.00 0.00 0.00 66 1007.3
20260504014742 67 255 4.3 9.6 0.00 0.00 0.00 64 1007.3
20260504014240 67 230 4.3 9.6 0.00 0.00 0.00 65 1007.3
20260504013742 66 254 4.3 10.4 0.00 0.00 0.00 65 1007.4
20260504013241 66 246 4.3 10.4 0.00 0.00 0.00 65 1007.5
20260504012741 66 286 5.2 10.4 0.00 0.00 0.00 65 1007.5
20260504011739 67 260 5.2 11.3 0.00 0.00 0.00 63 1007.7
20260504011239 67 276 5.2 11.3 0.00 0.00 0.00 61 1007.7
20260504010738 68 279 5.2 11.3 0.00 0.00 0.00 60 1007.7
20260504005742 69 311 5.2 11.3 0.00 0.00 0.00 57 1007.8
20260504005237 69 280 5.2 11.3 0.00 0.00 0.00 56 1007.8
20260504004737 69 232 5.2 10.4 0.00 0.00 0.00 56 1007.9
20260504004237 69 243 4.3 10.4 0.00 0.00 0.00 55 1007.9
20260504003737 70 265 5.2 9.6 0.00 0.00 0.00 55 1007.9
20260504003237 70 280 5.2 9.6 0.00 0.00 0.00 54 1007.9
20260504002736 71 282 5.2 9.6 0.00 0.00 0.00 54 1008.0
20260504002230 71 313 5.2 9.6 0.00 0.00 0.00 55 1008.0
20260504001725 71 269 5.2 10.4 0.00 0.00 0.00 56 1008.0
20260504000219 71 279 5.2 12.2 0.00 0.00 0.00 57 1008.0
20260503235717 71 280 5.2 13.0 0.00 0.00 0.00 56 1008.1
20260503235222 71 288 5.2 13.0 0.00 0.00 0.00 54 1008.2
20260503234722 71 286 6.1 11.3 0.00 0.00 0.00 55 1008.2
20260503234221 70 262 6.1 11.3 0.00 0.00 0.00 56 1008.3
20260503233721 70 277 6.1 13.0 0.00 0.00 0.00 56 1008.4
20260503233215 70 296 6.1 13.0 0.00 0.00 0.00 57 1008.4
20260503232713 70 269 6.1 14.8 0.00 0.00 0.00 58 1008.5
20260503232213 70 219 6.1 14.8 0.00 0.00 0.00 57 1008.5
20260503231712 70 318 5.2 10.4 0.00 0.00 0.00 58 1008.6
20260503231212 70 232 5.2 10.4 0.00 0.00 0.00 58 1008.6
20260503230712 70 246 6.1 13.9 0.00 0.00 0.00 59 1008.7
20260503230211 70 282 6.1 13.9 0.00 0.00 0.00 58 1008.7
20260503225207 70 273 6.1 13.9 0.00 0.00 0.00 57 1008.9
20260503224707 71 253 5.2 13.0 0.00 0.00 0.00 56 1008.9
20260503224206 71 247 5.2 12.2 0.00 0.00 0.00 56 1009.0
20260503223707 71 283 5.2 12.2 0.00 0.00 0.00 56 1009.0
20260503223207 71 281 4.3 10.4 0.00 0.00 0.00 55 1009.1
20260503222707 72 285 5.2 9.6 0.00 0.00 0.00 56 1009.2
20260503222207 72 259 5.2 9.6 0.00 0.00 0.00 55 1009.3
20260503221706 72 279 5.2 13.0 0.00 0.00 0.00 55 1009.3
20260503221207 72 291 5.2 13.0 0.00 0.00 0.00 55 1009.3
20260503220706 72 238 5.2 13.0 0.00 0.00 0.00 55 1009.3
20260503220206 72 304 5.2 13.0 0.00 0.00 0.00 53 1009.3
20260503215706 73 286 5.2 10.4 0.00 0.00 0.00 52 1009.4
20260503215206 73 279 4.3 10.4 0.00 0.00 0.00 53 1009.4